Satellite-Ground Cal/Val Region Overpasses Predictions

Prediction of Satellite NPP Overpassing Cal/Val Region: PacNW

Region Location: (Latitude: 10.00, Longitude: 139.50) to (Latitude: 22.70, Longitude: 165.60).

Table of predicted overpasses for the next 14.0 days since TLE Epoch: 7/17/2021
Interval Starting Time Starting Location Ending Time Ending Location
1 07/17/2021 15:05:04 ( 22.69, 158.63) 07/17/2021 15:08:40 ( 10.01, 155.62)
2 07/18/2021 02:14:51 ( 12.45, 165.59) 07/18/2021 02:17:45 ( 22.66, 163.14)
3 07/18/2021 03:55:40 ( 10.04, 140.77) 07/18/2021 03:57:13 ( 15.50, 139.50)
4 07/18/2021 14:46:04 ( 22.65, 163.38) 07/18/2021 14:49:39 ( 10.03, 160.38)
5 07/19/2021 03:36:38 ( 10.02, 145.53) 07/19/2021 03:40:13 ( 22.64, 142.53)
6 07/19/2021 14:30:03 ( 12.04, 165.59) 07/19/2021 14:30:37 ( 10.04, 165.14)
7 07/19/2021 16:08:32 ( 22.66, 142.77) 07/19/2021 16:12:07 ( 10.04, 139.76)
8 07/20/2021 03:17:37 ( 10.00, 150.29) 07/20/2021 03:21:13 ( 22.68, 147.27)
9 07/20/2021 15:49:31 ( 22.68, 147.53) 07/20/2021 15:53:07 ( 10.00, 144.51)
10 07/21/2021 02:58:36 ( 10.04, 155.04) 07/21/2021 03:02:11 ( 22.67, 152.03)
11 07/21/2021 15:30:29 ( 22.70, 152.29) 07/21/2021 15:34:05 ( 10.02, 149.27)
12 07/22/2021 02:39:35 ( 10.03, 159.80) 07/22/2021 02:43:10 ( 22.65, 156.79)
13 07/22/2021 15:11:29 ( 22.66, 157.03) 07/22/2021 15:15:04 ( 10.04, 154.03)
14 07/23/2021 02:20:34 ( 10.01, 164.56) 07/23/2021 02:24:10 ( 22.69, 161.54)
15 07/23/2021 14:52:27 ( 22.67, 161.79) 07/23/2021 14:56:02 ( 10.05, 158.79)
16 07/24/2021 03:43:03 ( 10.05, 143.93) 07/24/2021 03:46:38 ( 22.67, 140.92)
17 07/24/2021 14:34:32 ( 18.82, 165.60) 07/24/2021 14:37:02 ( 10.01, 163.53)
18 07/24/2021 16:14:56 ( 22.69, 141.18) 07/24/2021 16:16:53 ( 15.82, 139.51)
19 07/25/2021 03:24:02 ( 10.04, 148.69) 07/25/2021 03:27:37 ( 22.66, 145.68)
20 07/25/2021 15:55:55 ( 22.65, 145.92) 07/25/2021 15:59:30 ( 10.03, 142.92)
21 07/26/2021 03:05:00 ( 10.02, 153.45) 07/26/2021 03:08:35 ( 22.64, 150.44)
22 07/26/2021 15:36:54 ( 22.66, 150.68) 07/26/2021 15:40:29 ( 10.04, 147.68)
23 07/27/2021 02:45:59 ( 10.00, 158.21) 07/27/2021 02:49:35 ( 22.68, 155.19)
24 07/27/2021 15:17:52 ( 22.68, 155.44) 07/27/2021 15:21:27 ( 10.06, 152.44)
25 07/28/2021 02:26:58 ( 10.05, 162.95) 07/28/2021 02:30:33 ( 22.67, 159.95)
26 07/28/2021 14:58:51 ( 22.69, 160.20) 07/28/2021 15:02:27 ( 10.02, 157.18)
27 07/29/2021 02:10:31 ( 19.08, 165.59) 07/29/2021 02:11:32 ( 22.65, 164.71)
28 07/29/2021 03:49:27 ( 10.03, 142.34) 07/29/2021 03:52:50 ( 21.95, 139.51)
29 07/29/2021 14:39:50 ( 22.65, 164.95) 07/29/2021 14:43:25 ( 10.03, 161.94)
30 07/29/2021 16:21:20 ( 22.65, 139.57) 07/29/2021 16:21:24 ( 22.41, 139.51)
31 07/30/2021 03:30:25 ( 10.02, 147.10) 07/30/2021 03:34:01 ( 22.70, 144.08)
